This is the latest recevied weather packets stored in our database for station/object KE0PRS. If no packets are shown the sender has not sent any weather packets the latest 10 day(s).
| Time | Temp. | Humidity | Pressure | Rain* | Wind** | Luminosity | Snow |
|---|---|---|---|---|---|---|---|
| 1787607861 | 37.78° C | 34% | 1013.5 hPa | 0 mm | - | 511 W/m² | - |
| 1787607558 | 37.78° C | 34% | 1013.5 hPa | 0 mm | - | 524 W/m² | - |
| 1787607254 | 37.22° C | 34% | 1013.4 hPa | 0 mm | - | 542 W/m² | - |
| 1787606950 | 37.22° C | 35% | 1013.3 hPa | 0 mm | - | 557 W/m² | - |
| 1787606648 | 36.67° C | 35% | 1013.5 hPa | 0 mm | - | 571 W/m² | - |
| 1787606343 | 37.78° C | 35% | 1013.4 hPa | 0 mm | - | 581 W/m² | - |
| 1787606038 | 37.22° C | 35% | 1013.9 hPa | 0 mm | - | 597 W/m² | - |
| 1787605736 | 36.67° C | 35% | 1013.9 hPa | 0 mm | - | 602 W/m² | - |
| 1787605432 | 36.11° C | 36% | 1014 hPa | 0 mm | - | 616 W/m² | - |
| 1787605127 | 36.11° C | 36% | 1014.1 hPa | 0 mm | - | 630 W/m² | - |
| 1787604826 | 36.11° C | 36% | 1013.7 hPa | 0 mm | - | 639 W/m² | - |
| 1787604522 | 36.67° C | 36% | 1014 hPa | 0 mm | - | 650 W/m² | - |
| 1787604222 | 37.22° C | 35% | 1014 hPa | 0 mm | - | 658 W/m² | - |
| 1787603917 | 36.67° C | 36% | 1014.1 hPa | 0 mm | - | 659 W/m² | - |
| 1787603617 | 36.67° C | 36% | 1014.1 hPa | 0 mm | - | 677 W/m² | - |
| 1787603313 | 36.67° C | 36% | 1014 hPa | 0 mm | - | 678 W/m² | - |
| 1787603008 | 36.67° C | 36% | 1014.1 hPa | 0 mm | - | 678 W/m² | - |
| 1787602705 | 37.22° C | 35% | 1014 hPa | 0 mm | - | 698 W/m² | - |
| 1787602399 | 37.78° C | 35% | 1014.1 hPa | 0 mm | - | 711 W/m² | - |
| 1787602094 | 36.67° C | 36% | 1014 hPa | 0 mm | - | 714 W/m² | - |
| 1787601792 | 36.67° C | 36% | 1014.2 hPa | 0 mm | - | 719 W/m² | - |
| 1787601488 | 36.67° C | 36% | 1014.1 hPa | 0 mm | - | 733 W/m² | - |
| 1787601188 | 36.67° C | 36% | 1014.4 hPa | 0 mm | - | 737 W/m² | - |
| 1787600886 | 36.67° C | 36% | 1014.3 hPa | 0 mm | - | 741 W/m² | - |
| 1787600582 | 36.11° C | 38% | 1014.2 hPa | 0 mm | - | 754 W/m² | - |
* Rain latest hour (hover to see other rain measurements)
** Current wind speed in m/s (hover to see current wind gust speed)